| time (UTC) | temp C | wind direction | speed KPH | gust KPH | rain 1hr cm | rain 24hr cm | rain mn cm | humidity % | barometer mb |
| 20260504192215 | 17 | 305 | 1.6 | 1.6 | 0.00 | 0.00 | 0.00 | 59 | 1013.1 |
| 20260504190210 | 17 | 305 | 1.6 | 3.2 | 0.00 | 0.00 | 0.00 | 57 | 1013.2 |
| 20260504185213 | 18 | 305 | 1.6 | 4.8 | 0.00 | 0.00 | 0.00 | 56 | 1013.0 |
| 20260504184206 | 18 | 305 | 0.0 | 1.6 | 0.00 | 0.00 | 0.00 | 55 | 1012.9 |
| 20260504183212 | 19 | 305 | 1.6 | 4.8 | 0.00 | 0.00 | 0.00 | 54 | 1012.9 |
| 20260504182218 | 20 | 305 | 0.0 | 1.6 | 0.00 | 0.00 | 0.00 | 52 | 1012.9 |
| 20260504181218 | 20 | 305 | 1.6 | 4.8 | 0.00 | 0.00 | 0.00 | 51 | 1012.8 |
| 20260504180210 | 20 | 311 | 4.8 | 9.7 | 0.00 | 0.00 | 0.00 | 51 | 1012.8 |
| 20260504175213 | 21 | 310 | 4.8 | 11.3 | 0.00 | 0.00 | 0.00 | 50 | 1012.7 |
| 20260504174206 | 21 | 315 | 4.8 | 12.9 | 0.00 | 0.00 | 0.00 | 49 | 1012.7 |
| 20260504173215 | 22 | 354 | 1.6 | 3.2 | 0.00 | 0.00 | 0.00 | 47 | 1012.6 |
| 20260504172214 | 22 | 355 | 0.0 | 1.6 | 0.00 | 0.00 | 0.00 | 47 | 1012.5 |
| 20260504170211 | 22 | 355 | 1.6 | 3.2 | 0.00 | 0.00 | 0.00 | 45 | 1012.6 |
| 20260504150216 | 25 | 209 | 3.2 | 6.4 | 0.00 | 0.00 | 0.00 | 38 | 1012.8 |
| 20260504140221 | 25 | 219 | 3.2 | 12.9 | 0.00 | 0.00 | 0.00 | 37 | 1013.1 |
| 20260504130217 | 25 | 289 | 4.8 | 12.9 | 0.00 | 0.00 | 0.00 | 37 | 1013.5 |
| 20260504120215 | 25 | 224 | 6.4 | 16.1 | 0.00 | 0.00 | 0.00 | 36 | 1013.7 |
| 20260504110206 | 23 | 273 | 1.6 | 4.8 | 0.00 | 0.00 | 0.00 | 39 | 1014.1 |
| 20260504100210 | 23 | 292 | 4.8 | 9.7 | 0.00 | 0.00 | 0.00 | 39 | 1014.7 |
| 20260504081215 | 21 | 257 | 9.7 | 16.1 | 0.00 | 0.00 | 0.00 | 42 | 1014.7 |
| 20260504080208 | 21 | 279 | 6.4 | 12.9 | 0.00 | 0.00 | 0.00 | 43 | 1014.7 |
| 20260504070209 | 19 | 202 | 4.8 | 6.4 | 0.00 | 0.00 | 0.00 | 46 | 1014.4 |
| 20260504045213 | 15 | 0.0 | 0.0 | 0.00 | 0.00 | 0.00 | 53 | 1013.7 | |
| 20260504044211 | 15 | 197 | 1.6 | 6.4 | 0.00 | 0.00 | 0.00 | 53 | 1013.7 |
| 20260504043210 | 15 | 300 | 4.8 | 12.9 | 0.00 | 0.00 | 0.00 | 52 | 1013.9 |
| 20260504042213 | 15 | 259 | 4.8 | 11.3 | 0.00 | 0.00 | 0.00 | 51 | 1013.9 |
| 20260504041206 | 15 | 250 | 8.0 | 12.9 | 0.00 | 0.00 | 0.00 | 52 | 1013.9 |
| 20260504040209 | 15 | 259 | 8.0 | 14.5 | 0.00 | 0.00 | 0.00 | 52 | 1013.8 |
| 20260504035212 | 15 | 256 | 8.0 | 14.5 | 0.00 | 0.00 | 0.00 | 52 | 1013.9 |
| 20260504034216 | 15 | 245 | 4.8 | 14.5 | 0.00 | 0.00 | 0.00 | 51 | 1013.9 |
| 20260504032212 | 15 | 258 | 8.0 | 14.5 | 0.00 | 0.00 | 0.00 | 50 | 1013.8 |
| 20260504031206 | 16 | 238 | 6.4 | 16.1 | 0.00 | 0.00 | 0.00 | 50 | 1013.8 |
| 20260504030209 | 16 | 235 | 6.4 | 16.1 | 0.00 | 0.00 | 0.00 | 50 | 1013.7 |
| 20260504025212 | 16 | 256 | 6.4 | 12.9 | 0.00 | 0.00 | 0.00 | 49 | 1013.7 |
| 20260504024215 | 16 | 247 | 6.4 | 12.9 | 0.00 | 0.00 | 0.00 | 49 | 1013.8 |
| 20260504023208 | 16 | 240 | 6.4 | 12.9 | 0.00 | 0.00 | 0.00 | 49 | 1013.6 |
| 20260504022214 | 16 | 241 | 6.4 | 12.9 | 0.00 | 0.00 | 0.00 | 48 | 1013.5 |
| 20260504021216 | 16 | 263 | 8.0 | 14.5 | 0.00 | 0.00 | 0.00 | 48 | 1013.5 |
| 20260504020208 | 16 | 242 | 8.0 | 17.7 | 0.00 | 0.00 | 0.00 | 48 | 1013.6 |
| 20260504015211 | 16 | 256 | 6.4 | 16.1 | 0.00 | 0.00 | 0.00 | 47 | 1013.5 |
| 20260504014214 | 17 | 257 | 9.7 | 20.9 | 0.00 | 0.00 | 0.00 | 46 | 1013.5 |
| 20260504013208 | 17 | 259 | 11.3 | 35.4 | 0.00 | 0.00 | 0.00 | 46 | 1013.4 |
| 20260504012201 | 17 | 209 | 11.3 | 29.0 | 0.00 | 0.00 | 0.00 | 45 | 1013.1 |
| 20260504005209 | 17 | 236 | 6.4 | 16.1 | 0.00 | 0.00 | 0.00 | 44 | 1013.2 |
| 20260504004212 | 17 | 240 | 11.3 | 27.4 | 0.00 | 0.00 | 0.00 | 44 | 1013.1 |
| 20260504003215 | 17 | 253 | 8.0 | 16.1 | 0.00 | 0.00 | 0.00 | 44 | 1013.0 |
| 20260504002208 | 17 | 257 | 11.3 | 25.7 | 0.00 | 0.00 | 0.00 | 44 | 1012.9 |
| 20260504001211 | 17 | 233 | 6.4 | 20.9 | 0.00 | 0.00 | 0.00 | 44 | 1012.4 |
| 20260504000219 | 17 | 206 | 9.7 | 22.5 | 0.00 | 0.00 | 0.00 | 44 | 1012.3 |
| 20260503234213 | 18 | 205 | 11.3 | 27.4 | 0.00 | 0.00 | 0.00 | 43 | 1012.5 |
| 20260503233217 | 18 | 204 | 11.3 | 22.5 | 0.00 | 0.00 | 0.00 | 43 | 1012.3 |
| 20260503232207 | 18 | 201 | 9.7 | 29.0 | 0.00 | 0.00 | 0.00 | 42 | 1012.4 |
| 20260503231211 | 18 | 209 | 11.3 | 25.7 | 0.00 | 0.00 | 0.00 | 42 | 1012.3 |
| 20260503230214 | 18 | 203 | 14.5 | 37.0 | 0.00 | 0.00 | 0.00 | 42 | 1012.4 |
| 20260503225207 | 18 | 201 | 11.3 | 30.6 | 0.00 | 0.00 | 0.00 | 42 | 1012.3 |
| 20260503224210 | 18 | 186 | 11.3 | 25.7 | 0.00 | 0.00 | 0.00 | 42 | 1012.6 |
| 20260503223213 | 18 | 189 | 11.3 | 22.5 | 0.00 | 0.00 | 0.00 | 42 | 1012.6 |
| 20260503221212 | 18 | 184 | 11.3 | 25.7 | 0.00 | 0.00 | 0.00 | 43 | 1012.6 |
| 20260503220213 | 18 | 184 | 9.7 | 33.8 | 0.00 | 0.00 | 0.00 | 42 | 1012.8 |
| 20260503215212 | 18 | 186 | 8.0 | 29.0 | 0.00 | 0.00 | 0.00 | 42 | 1012.8 |
| 20260503214210 | 18 | 192 | 9.7 | 20.9 | 0.00 | 0.00 | 0.00 | 42 | 1012.8 |
| 20260503213217 | 18 | 177 | 9.7 | 22.5 | 0.00 | 0.00 | 0.00 | 42 | 1012.8 |
| 20260503212216 | 18 | 201 | 8.0 | 22.5 | 0.00 | 0.00 | 0.00 | 42 | 1012.9 |
| 20260503211211 | 18 | 180 | 6.4 | 17.7 | 0.00 | 0.00 | 0.00 | 42 | 1012.9 |
| 20260503210212 | 18 | 171 | 9.7 | 16.1 | 0.00 | 0.00 | 0.00 | 42 | 1013.0 |
| 20260503205215 | 18 | 184 | 8.0 | 24.1 | 0.00 | 0.00 | 0.00 | 42 | 1013.0 |
| 20260503204209 | 18 | 188 | 6.4 | 12.9 | 0.00 | 0.00 | 0.00 | 42 | 1012.9 |
| 20260503203215 | 18 | 184 | 6.4 | 16.1 | 0.00 | 0.00 | 0.00 | 42 | 1013.0 |
| 20260503202216 | 18 | 172 | 6.4 | 12.9 | 0.00 | 0.00 | 0.00 | 42 | 1013.0 |
| 20260503201209 | 18 | 206 | 6.4 | 14.5 | 0.00 | 0.00 | 0.00 | 42 | 1013.1 |
| 20260503200212 | 18 | 182 | 8.0 | 20.9 | 0.00 | 0.00 | 0.00 | 42 | 1013.3 |
| 20260503195214 | 18 | 185 | 4.8 | 12.9 | 0.00 | 0.00 | 0.00 | 41 | 1013.3 |
| 20260503194207 | 18 | 180 | 6.4 | 14.5 | 0.00 | 0.00 | 0.00 | 41 | 1013.2 |
| 20260503193210 | 18 | 190 | 4.8 | 11.3 | 0.00 | 0.00 | 0.00 | 41 | 1013.4 |